Probability
0 0 0 0 0 0 0 0 0 0 0 0 0 0 0 0 0 0 0 0 3 6 6 2 1 1 3 8 16 25 29 29 27 23 18 13 9 5 2 0 0 0 0 0 0 0 0 0 0
0 0 0 0 0 0 0 0 0 0 0 0 0 0 0 0 0 0 0 1 5 7 6 2 0 1 3 10 23 35 41 41 37 31 23 15 10 5 1 0 0 0 0 0 0 0 0 0 0
0 0 0 0 0 0 0 0 0 0 0 0 0 0 0 0 0 0 2 5 7 7 5 3 2 1 3 12 28 45 54 53 48 41 29 17 9 4 1 0 0 0 0 0 0 0 0 0 0
0 0 0 0 0 0 0 0 0 0 0 0 0 0 0 0 0 2 5 7 7 5 4 4 4 3 4 10 26 45 55 55 50 42 30 17 7 3 1 0 0 0 0 0 0 0 0 0 0
0 0 0 0 0 0 0 0 0 0 0 0 0 0 0 0 1 3 6 6 4 3 3 5 6 4 3 6 19 37 49 51 47 39 28 17 9 5 3 1 0 0 0 0 0 0 0 0 0
0 0 0 0 0 0 0 0 0 0 0 0 0 0 0 0 1 3 6 5 2 1 3 5 5 4 2 2 11 25 36 40 39 33 24 17 12 8 5 2 1 0 0 0 0 0 0 0 1
0 0 0 0 0 0 0 0 0 0 0 0 0 0 0 0 1 3 6 5 2 2 3 4 4 2 1 2 6 14 22 25 26 23 18 14 12 9 5 2 1 0 0 0 0 0 0 0 1
0 0 0 0 0 0 0 0 0 0 0 0 0 0 1 3 4 8 10 8 6 5 4 4 3 2 1 1 3 7 11 14 14 13 11 10 7 5 3 2 1 1 0 0 0 0 0 0 1
0 0 0 0 0 0 0 0 0 0 0 0 0 0 3 8 13 20 24 21 17 13 8 4 3 2 1 0 1 2 5 7 7 6 6 4 2 1 1 1 1 1 0 0 0 0 0 0 0
0 0 0 0 0 0 0 0 0 0 0 0 0 0 5 13 20 29 36 35 31 24 13 6 3 2 1 0 0 0 2 3 2 2 2 1 0 0 0 0 1 0 0 0 0 0 0 0 0
0 0 0 0 0 0 0 0 0 0 0 0 0 0 4 10 17 27 36 38 37 29 17 8 4 3 1 0 1 1 2 2 2 2 2 1 1 0 0 0 1 0 0 0 0 0 0 0 0
0 0 0 0 0 0 0 0 0 0 1 1 0 0 3 7 11 19 28 34 36 31 20 10 6 5 3 3 4 5 5 4 4 5 5 4 3 1 0 1 1 0 0 0 0 0 0 0 0
0 0 0 0 0 0 0 0 0 1 2 2 2 2 4 6 9 15 24 32 36 33 24 15 11 10 11 12 12 11 9 7 7 9 7 6 4 3 3 4 4 2 0 0 0 0 1 1 0
0 0 0 0 0 0 0 0 1 2 3 4 5 6 8 8 9 16 26 34 37 34 28 22 18 18 23 25 22 18 14 11 11 10 9 7 7 7 7 8 8 5 2 1 1 2 3 4 3
0 0 0 0 0 0 0 0 1 3 4 6 8 10 13 16 17 22 31 34 34 34 32 29 24 24 29 31 29 24 17 13 13 12 10 8 10 13 13 11 10 10 9 8 9 10 12 12 11
0 0 0 0 0 0 0 1 3 4 6 9 11 14 19 27 30 31 33 32 31 34 38 35 29 28 31 33 33 30 25 19 16 15 14 12 13 18 20 18 18 21 22 21 21 23 24 22 21
0 0 0 0 0 0 1 4 7 9 9 13 18 23 28 36 42 41 36 32 33 39 43 42 37 35 37 39 41 41 38 31 27 26 26 24 22 25 28 29 31 35 38 37 36 37 37 32 30
0 0 0 0 0 1 2 6 12 15 15 20 28 34 38 43 47 48 43 37 39 45 49 49 49 50 51 54 56 56 51 46 44 43 41 39 37 37 39 41 44 48 52 48 44 43 41 35 32
0 0 0 0 0 2 4 8 14 19 22 29 37 41 45 48 50 51 49 46 45 48 53 56 60 65 67 69 71 69 63 59 56 51 48 47 46 46 48 48 51 54 54 48 42 39 34 28 25
0 0 0 0 0 1 3 7 12 19 26 35 43 45 48 51 51 52 55 56 53 53 57 61 67 74 77 78 78 76 70 62 54 47 42 41 42 43 44 44 44 44 43 38 35 32 26 20 15
0 0 0 0 0 0 1 4 8 16 26 37 44 45 47 50 51 52 56 59 58 57 60 64 71 77 81 83 81 77 70 59 46 36 30 27 28 30 29 27 27 26 26 24 24 22 20 15 11
0 0 0 0 0 0 0 1 4 11 20 30 37 37 37 40 43 46 49 51 52 55 60 66 72 76 78 79 77 72 62 50 38 26 18 15 15 16 15 12 12 12 11 11 10 10 10 9 7
0 0 0 0 0 0 0 1 3 7 13 21 26 26 26 27 30 34 37 37 39 45 52 60 66 67 66 66 64 57 45 36 27 17 11 8 7 7 6 4 3 3 3 3 3 3 3 2 2
0 0 0 0 0 0 0 2 5 7 10 14 17 17 16 16 18 22 24 24 26 30 36 44 49 49 49 48 46 39 30 22 16 9 5 3 2 2 1 1 0 0 0 0 1 1 0 0 0
0 0 0 0 0 0 0 3 8 9 8 8 9 10 9 8 10 13 15 16 17 19 20 24 28 30 31 30 28 24 19 13 8 4 2 0 0 0 0 0 0 0 0 0 0 0 0 0 0
0 0 0 0 0 0 1 6 9 7 4 3 4 5 5 4 5 7 10 12 13 13 12 12 14 16 17 16 13 10 8 6 3 1 0 0 0 0 0 0 0 0 0 0 0 0 0 0 0
0 0 0 0 0 0 2 5 6 4 2 1 2 4 4 2 2 4 6 8 8 8 8 8 8 8 7 6 4 2 2 1 0 0 0 0 0 0 0 0 0 0 0 0 0 0 0 0 0
0 0 0 0 0 0 1 2 3 3 2 1 1 2 2 1 0 1 2 3 3 4 5 4 3 2 2 1 1 0 0 0 0 0 0 0 0 0 0 0 0 0 0 0 0 0 0 0 0
0 0 0 0 0 0 1 2 3 4 3 1 1 1 1 0 0 0 0 0 1 1 1 1 0 0 0 0 0 0 0 0 0 0 0 0 0 0 0 0 0 0 0 0 0 0 0 0 0
0 0 0 0 0 0 1 3 6 6 4 1 0 1 0 0 0 0 0 0 0 0 0 0 0 0 0 0 0 0 0 0 0 0 0 0 0 0 0 0 0 0 0 0 0 0 0 0 0
Wind_Speed
10 7 7 7 9 8 5 4 2 3 3 2 1 2 3 4 4 5 5 14 16 18 20 19 14 13 14 15 16 18 18 18 18 17 16 15 14 13 12 12 11 11 11 12 12 12 12 11 11
7 5 7 7 10 9 6 5 4 4 4 1 2 2 3 1 4 5 8 15 18 19 19 19 16 13 14 15 16 17 19 19 18 18 17 16 14 13 12 12 12 11 11 11 11 11 11 10 10
6 7 8 8 12 10 6 5 3 3 2 0 1 2 2 2 3 5 10 18 18 18 18 18 17 15 15 15 16 17 18 18 18 18 17 15 14 13 12 12 12 11 11 11 11 11 10 9 9
6 8 8 11 16 12 6 4 0 1 1 0 2 2 2 4 2 7 16 19 19 18 18 19 17 16 15 15 15 16 17 17 17 17 16 15 14 12 12 12 12 11 11 10 10 10 9 8 8
7 9 14 17 19 14 9 5 4 5 2 1 3 3 2 5 6 13 18 19 19 18 17 20 16 15 15 16 16 16 16 15 15 15 15 14 12 11 11 11 11 10 10 10 10 9 8 7 6
9 10 16 19 20 16 12 8 8 8 5 3 4 4 4 7 9 15 18 18 18 18 18 19 17 16 16 15 15 14 14 14 14 14 13 12 11 11 11 10 10 10 10 9 9 8 7 6 5
12 14 20 21 18 17 14 10 10 9 8 5 4 4 5 8 10 15 17 17 18 17 17 18 18 17 15 13 13 13 13 13 13 13 13 12 11 11 11 10 10 9 9 9 8 7 6 5 4
9 11 20 21 19 18 13 10 9 10 9 3 4 5 3 10 12 15 16 16 17 16 17 18 17 17 16 16 14 14 13 13 13 13 13 13 12 11 10 10 9 9 8 8 7 6 5 4 4
9 12 17 18 17 15 11 11 10 7 9 8 6 5 3 13 15 16 16 16 16 15 15 16 17 16 16 15 15 15 14 13 13 13 13 12 11 11 10 8 9 8 7 7 6 6 5 5 6
10 14 17 11 10 11 10 11 10 9 11 11 8 3 7 13 16 18 19 19 19 18 17 15 16 16 15 12 13 11 12 12 12 11 12 10 7 5 6 11 8 7 7 7 6 6 7 9 7
10 13 10 8 9 10 11 10 10 12 13 11 8 6 10 14 16 18 19 19 19 18 16 15 15 14 14 11 11 8 7 9 10 11 11 7 6 6 5 6 8 8 9 8 9 9 7 6 3
9 10 9 9 8 10 11 11 12 13 13 8 6 5 9 14 16 17 18 18 17 18 17 16 15 13 13 11 9 9 7 7 8 9 10 8 5 5 5 4 5 5 5 4 5 4 4 5 5
12 10 10 11 11 11 11 12 12 13 12 11 8 8 11 13 13 14 14 15 16 17 17 16 15 13 11 9 8 8 7 8 8 7 8 8 6 6 5 4 3 4 4 5 5 4 4 5 6
7 9 10 11 12 11 13 13 12 10 10 9 9 8 9 11 12 13 14 14 15 15 15 14 14 13 11 9 8 7 7 6 7 7 8 9 6 5 5 5 4 4 4 3 4 4 4 5 4
7 10 11 12 12 10 10 12 11 8 7 7 7 6 6 8 9 11 12 12 13 14 14 13 13 13 12 11 10 7 7 7 6 6 7 8 7 6 5 5 5 4 4 3 4 4 4 4 4
10 11 10 7 8 8 11 9 4 3 5 5 4 4 5 5 7 8 10 10 11 12 13 13 12 13 12 10 9 7 7 7 6 5 5 7 7 6 6 5 5 4 4 4 4 4 4 4 4
11 11 8 7 6 6 10 4 5 2 2 3 3 4 4 4 4 5 7 9 10 11 12 13 13 13 12 11 8 7 5 5 5 4 4 5 6 6 6 5 4 4 4 4 4 3 3 3 3
7 8 7 6 6 5 6 2 5 4 3 3 4 4 4 4 3 3 4 6 8 10 11 12 12 12 12 10 8 6 6 5 4 3 3 4 4 5 5 4 4 4 4 3 3 2 1 2 2
4 5 5 4 3 3 5 4 5 6 6 5 5 5 5 5 5 4 2 4 7 9 10 11 12 12 10 8 9 8 6 5 4 3 2 3 3 3 3 3 3 3 3 3 3 2 3 2 2
8 9 7 5 4 3 6 6 7 8 8 8 7 6 6 7 7 6 4 2 4 7 9 10 10 11 10 8 7 6 6 5 4 3 3 1 0 0 1 2 2 2 2 2 1 1 2 1 1
10 9 7 5 5 7 8 6 7 8 9 9 10 10 10 9 8 7 6 4 2 3 5 7 9 10 10 10 7 6 5 4 3 3 3 2 2 2 2 1 0 1 1 1 1 2 3 2 1
9 7 7 8 10 9 10 7 8 7 8 9 10 10 11 10 9 8 8 7 5 3 2 4 5 7 8 9 9 10 7 6 4 4 3 4 4 4 4 3 4 4 3 3 2 3 2 1 1
7 4 7 9 9 7 9 7 9 8 7 8 9 10 11 11 11 11 10 8 7 6 5 4 5 5 6 7 8 8 6 5 5 5 7 7 6 7 8 7 7 7 6 6 6 6 6 4 3
6 6 7 9 10 11 9 8 7 5 7 8 8 9 10 10 11 11 11 11 10 9 8 7 8 7 6 7 7 8 9 8 9 8 8 7 6 7 10 9 9 9 8 8 8 8 9 7 6
10 10 9 11 11 8 6 5 7 8 9 9 9 9 9 10 11 11 12 12 12 12 11 10 11 11 10 10 10 10 10 10 10 9 9 8 7 7 9 9 9 9 9 9 8 9 9 8 8
9 12 9 7 9 7 8 5 8 10 11 11 10 9 10 11 11 12 12 12 12 13 13 12 13 13 13 13 13 12 12 10 9 11 10 10 8 9 9 10 10 10 10 9 8 7 7 7 7
7 9 7 8 6 5 7 9 8 9 10 10 10 10 10 10 11 12 13 13 13 14 14 14 15 15 15 15 15 15 14 13 14 13 12 10 9 9 11 10 10 10 10 9 7 7 7 6 6
5 4 5 9 7 7 8 9 9 12 11 10 9 10 10 10 11 12 12 13 13 13 14 15 16 16 16 15 14 13 15 14 14 13 14 12 11 10 10 10 10 9 9 8 7 6 7 6 6
4 5 6 7 7 7 7 5 6 12 12 12 10 10 10 10 11 11 11 12 13 14 14 15 15 16 15 15 15 15 14 14 14 13 13 12 11 10 10 9 9 9 9 8 8 7 7 6 6
2 2 4 6 6 7 4 7 6 9 12 13 12 11 11 11 11 11 12 12 13 14 14 14 14 15 14 14 14 14 13 13 13 13 12 11 10 9 9 9 9 8 8 7 7 7 7 6 6
Wind_Direction
267 265 257 255 250 239 224 135 122 116 98 53 359 283 298 311 329 30 99 154 147 146 144 150 149 148 146 146 147 147 146 147 146 146 145 144 142 139 136 134 131 128 126 123 122 121 120 120 119
287 264 247 250 257 240 198 153 141 71 48 22 166 233 265 304 36 88 134 148 147 145 148 155 147 148 145 144 145 146 147 147 146 146 146 145 143 141 139 137 135 132 129 128 126 124 123 122 122
256 244 256 251 244 246 196 157 123 79 79 171 198 218 297 25 89 125 140 149 148 146 151 146 151 149 146 145 145 146 148 148 148 147 147 145 145 143 141 141 138 135 133 131 129 127 125 125 123
232 221 236 245 240 235 234 172 124 283 132 156 273 213 120 57 78 128 143 152 150 150 153 147 156 151 149 148 147 147 148 148 148 147 146 145 145 144 144 144 141 138 135 132 130 129 128 128 128
232 236 234 237 238 234 226 234 266 274 271 272 278 262 132 94 107 134 150 155 154 154 153 151 157 153 153 153 150 149 148 147 146 146 145 145 146 145 144 143 141 139 136 133 131 131 129 130 134
220 229 236 235 233 230 226 234 253 262 265 266 264 264 97 113 137 148 155 159 157 155 153 149 157 158 158 158 154 151 149 147 146 145 145 145 144 143 144 143 141 139 137 135 134 135 133 133 137
235 229 238 240 238 228 223 229 251 259 256 261 280 265 124 140 144 154 158 161 158 158 155 155 163 164 163 160 157 154 150 148 146 145 145 145 145 146 146 143 141 139 139 140 140 141 140 139 138
251 243 241 241 241 236 224 228 243 260 269 289 261 260 148 138 151 156 158 161 160 162 162 161 166 167 170 169 165 160 156 153 150 150 151 150 150 153 152 157 144 146 146 146 147 149 150 152 153
236 239 238 235 238 240 230 231 236 251 259 254 251 289 47 138 156 159 160 164 164 167 168 167 166 169 175 172 164 168 164 158 158 160 158 167 177 169 172 154 145 156 155 154 156 160 166 183 180
222 236 241 249 255 250 236 235 241 237 235 234 222 186 137 156 166 170 170 170 170 171 173 172 170 171 176 171 164 177 177 169 184 173 174 189 178 179 173 130 158 166 167 169 170 175 195 224 201
226 244 250 246 251 261 256 245 243 245 241 235 231 189 167 173 180 182 179 177 174 172 174 175 174 177 177 173 172 178 181 173 189 180 182 187 180 182 185 169 172 183 189 195 172 197 214 221 233
236 243 253 251 244 245 250 252 247 244 253 261 265 229 193 192 192 191 184 180 175 174 177 178 174 180 186 180 176 181 182 179 186 179 191 182 192 195 193 203 192 193 200 204 218 219 213 235 229
234 241 239 244 247 250 254 250 252 254 257 263 256 236 215 205 198 194 187 180 177 176 178 180 178 176 184 184 185 187 188 185 185 181 193 193 194 200 193 205 214 226 212 202 224 232 219 235 226
242 247 248 245 243 238 243 242 237 248 253 250 242 233 216 206 197 188 184 181 179 177 179 176 181 174 182 185 190 186 190 189 191 191 190 199 206 199 203 206 209 227 229 236 239 233 230 241 248
255 251 241 232 229 226 230 234 231 247 248 239 226 212 204 200 193 188 183 182 180 178 177 177 183 176 184 189 192 187 191 189 195 191 191 200 209 200 212 218 216 222 223 220 237 235 238 239 235
228 234 229 191 206 201 222 220 174 230 230 224 205 179 180 181 185 184 181 183 182 181 177 180 184 180 185 191 192 191 193 188 193 191 193 203 214 210 219 226 225 220 224 221 225 235 236 236 241
215 223 204 160 177 186 217 204 76 30 187 185 163 154 154 146 163 166 178 179 182 182 179 181 187 183 185 184 185 190 184 191 191 192 198 201 213 220 229 238 235 226 230 228 238 226 247 242 247
208 208 192 176 144 180 187 138 64 54 87 112 113 110 108 104 112 136 171 175 176 178 180 181 184 184 181 179 179 183 182 185 186 183 188 199 214 223 234 241 237 236 234 229 230 233 256 275 262
263 244 209 171 144 181 153 105 64 59 67 72 74 75 80 75 71 83 128 166 171 174 177 180 183 179 180 182 181 179 178 175 169 163 159 189 211 219 232 250 239 237 233 228 210 214 218 243 257
239 233 216 190 162 187 139 105 83 65 63 56 57 61 59 59 59 59 67 113 161 171 175 178 181 178 182 180 178 172 162 163 152 118 90 72 89 167 219 236 228 221 215 200 184 189 208 187 289
231 237 226 199 179 186 170 145 115 91 76 66 57 54 53 49 49 49 49 54 86 147 173 182 183 180 180 170 164 154 147 144 147 134 110 58 44 55 54 89 111 93 129 133 148 182 184 171 136
230 226 237 227 224 197 215 190 137 119 93 69 56 50 48 47 48 46 44 42 43 49 125 153 168 169 169 168 169 165 161 161 147 129 112 78 56 60 58 63 70 67 65 70 67 60 59 115 153
249 240 233 230 235 224 210 223 140 144 115 80 60 52 46 44 45 44 40 40 39 42 59 86 108 125 141 150 153 149 142 134 123 117 104 85 66 60 59 60 67 65 64 64 63 64 61 59 61
238 226 220 228 225 222 211 223 147 134 117 96 72 59 51 48 47 46 43 44 43 45 52 64 78 82 93 106 114 124 127 129 120 113 102 87 72 63 60 65 66 67 65 62 61 63 65 64 64
222 223 208 203 211 206 177 207 97 89 99 101 86 67 57 53 50 48 45 45 45 47 53 61 72 71 75 81 84 94 104 108 105 102 94 89 76 66 60 63 63 64 66 64 63 67 64 61 60
217 234 242 230 209 171 172 147 102 99 101 99 91 80 67 59 57 55 52 52 52 53 57 63 68 70 70 74 76 77 83 87 87 85 87 83 78 73 69 67 66 63 63 62 57 61 61 59 59
220 230 264 276 254 205 143 117 123 126 117 109 100 89 77 69 63 61 58 57 58 60 61 66 72 72 71 73 75 75 77 82 85 85 83 82 82 80 73 71 69 65 61 59 58 58 51 47 43
277 256 237 244 234 217 166 172 163 160 146 128 114 102 94 83 73 67 64 62 63 66 68 70 73 76 76 76 77 79 78 80 82 84 85 84 82 80 78 73 69 65 60 53 49 55 47 42 38
211 217 250 254 267 257 197 136 114 156 151 137 122 112 105 95 86 79 75 73 73 73 73 73 75 77 77 78 80 81 81 83 84 84 84 84 82 80 78 75 70 65 60 54 50 47 41 35 27
313 310 269 260 242 262 273 98 84 135 136 131 122 114 108 100 95 90 86 82 80 79 79 79 80 81 82 83 83 84 84 85 85 84 85 86 85 81 79 77 73 67 62 55 51 44 36 29 22